www.pogodaiklimat.ru

Погода и климат >> Архив погоды >> Канада >> Онтарио >> Биг Траут Лейк


ПОГОДА в Биг Траут Лейк

  • Прогноз погоды в Биг Траут Лейк
  • Монитор погоды в Биг Траут Лейк

АРХИВ ПОГОДЫ в Биг Траут Лейк

Время (UTC), дата Ветер
(напр.,м/с)
 
Видим.   Явления Облачность Т
(С)
Тd
(С)
f
(%)
Тe
(С)
Тes
(С)
Комфортность P
(гПа)
Po
(гПа)
Тmin
(С)
Tmax
(С)
R
(мм)
R24
(мм)
S
(см)
18 15.03 С 5 16 км слаб. снег 10/10 300 м
[]
-14.3 -18.3 72 -23 -23 1016.4 987.7 -15.6 -10.8
21 15.03 СЗ 6 16 км 10/10 600 м
[]
-12.6 -17.5 67 -22 -22 1017.2 988.5
00 16.03 СЗ 4 16 км слаб. снег 10/10 1000 м
[]
-13.1 -17.5 69 -21 -21 1019.4 990.5 -15.6 -12.4
03 16.03 СЗ 5 16 км ясно -15.3 -19.3 71 -24 -24 1020.9 991.9
06 16.03 СЗ 3 16 км 3/3 1000 м
[]
-18.7 -21.0 82 -25 -25 1021.1 992.0 -18.7 -10.8 11
09 16.03 З 4 11 км слаб. снег 10/10 1000 м
[]
-17.1 -19.6 81 -25 -25 1021.2 992.2
12 16.03 СЗ 5 16 км 3/3 1500 м
[]
-17.4 -19.8 82 -26 -26 1021.7 992.6 -19.0 -10.8
15 16.03 СЗ 6 16 км ясно -16.3 -20.9 68 -26 -22 1023.1 994.0
18 16.03 СЗ 6 16 км ясно -12.3 -19.3 56 -21 -17 1023.5 994.4 -19.0 -12.3
21 16.03 СЗ 7 16 км ясно -10.1 -19.1 48 -19 -18 1023.1 994.1
00 17.03 СЗ 4 16 км ясно -12.1 -20.1 51 -19 -19 1023.7 994.6 -19.0 -9.5
03 17.03 С 2 16 км ясно -16.0 -22.3 58 -20 -20 1024.1 994.9
06 17.03 С 2 16 км ясно -19.6 -23.3 72 -25 -25 1024.4 995.2 -20.4 -9.5 14
09 17.03 СЗ 2 16 км ясно -23.3 -25.7 81 -29 -29 1025.2 995.9
12 17.03 СЗ 2 16 км ясно -26.4 -29.1 78 -33 -33 опасность
обморожения
1026.8 997.3 -26.7 -9.5
15 17.03 СЗ 2 16 км ясно -18.5 -22.8 69 -23 -14 1027.6 998.2
18 17.03 ЮЗ 3 16 км ясно -12.9 -24.2 38 -19 -11 1027.4 998.1 -27.2 -12.8
21 17.03 Ю 3 16 км ясно -10.7 -20.4 45 -16 -14 1026.7 997.4
00 18.03 ЮЗ 1 16 км 3/0
[]
-13.5 -23.9 41 -16 -16 1026.4 996.9 -27.2 -9.0
03 18.03 Ю 1 16 км 5/0
[]
-17.5 -26.3 46 -20 -20 1025.3 996.0
06 18.03 Ю 2 16 км 9/9 1000 м
[]
-15.3 -24.0 47 -19 -19 1024.1 995.1 -27.2 -9.0
09 18.03 Ю 2 16 км 10/10 1000 м
[]
-14.2 -22.8 48 -18 -18 1022.4 993.5
12 18.03 ЮВ 3 4800 м слаб. снег 10/10 600 м
[]
-11.3 -12.8 89 -17 -17 1021.0 992.2 -17.8 -9.0
15 18.03 Ю 2 16 км ясно -7.7 -10.7 79 -11 -2 1020.4 991.6
18 18.03 Ю 2 16 км ясно -2.3 -8.6 62 -6 +4 1020.3 991.7 -17.8 -2.2
21 18.03 Ю 2 16 км ясно +0.7 -7.2 55 -2 0 1019.4 991.0
00 19.03 Ю 2 16 км ясно -3.9 -9.0 68 -7 -7 1020.2 991.7 -15.3 +2.9
03 19.03 Ю 2 16 км ясно -5.1 -9.6 71 -9 -9 1020.1 991.7
06 19.03 ЮЗ 3 16 км ясно -7.3 -10.8 76 -12 -12 1019.0 990.7 -15.3 +2.9
09 19.03 ЮЗ 3 16 км ясно -7.0 -11.4 71 -13 -13 1017.7 989.5
12 19.03 ЮЗ 4 16 км 3/0
[]
-6.2 -9.1 80 -12 -12 1015.7 987.5 -8.8 +2.9
15 19.03 ЮЗ 4 16 км ясно -3.6 -6.7 79 -9 -3 1013.2 985.1
18 19.03 ЮЗ 6 16 км 10/10 1500 м
[]
+2.8 -4.8 57 -2 -2 1010.2 982.3 -8.8 +3.0
21 19.03 ЮЗ 4 4800 м слаб. снег 10/10 600 м
[]
+1.0 -1.2 85 -4 -4 1008.3 980.4
00 20.03 Ю 2 2000 м слаб. снег {осадки} 10/10 50 м
[]
+0.1 -1 -1 1007.9 980.0 -8.1 +3.3 1
03 20.03 СВ 1 2000 м {осадки} 10/10 100 м
[]
0.0 +1 +1 1008.7 980.8
06 20.03 СВ 3 16 км {осадки} 10/10 200 м
[]
+0.1 +0.1 100 -5 -5 1010.9 983.2 -8.1 +3.3 0.3 18
09 20.03 СВ 3 8000 м осадки 10/10 50 м
[]
+0.1 -2 -2 1013.6 985.7
12 20.03 СВ 3 16 км слаб. снег 10/10 100 м
[]
-1.7 -1.7 100 -7 -7 1017.0 989.0 -1.7 +3.3
15 20.03 СВ 3 16 км слаб. снег 10/10 100 м
[]
-2.8 -3.0 99 -8 -8 1019.2 991.1
18 20.03 З 3 16 км 10/10 200 м
[]
-1.6 -3.6 86 -6 -6 1019.1 991.0 -3.0 +0.2
21 20.03 Ю 3 16 км 10/10 300 м
[]
-0.7 -1.4 95 -5 -5 1016.9 988.9
00 21.03 ЮЗ 4 16 км 10/0
[]
+0.5 -1.0 90 -5 -5 1013.6 985.7 -3.0 +1.2
03 21.03 ЮЗ 5 16 км слаб. дождь 10/0
[]
+1.8 -1.5 79 -4 -4 1009.2 981.4
06 21.03 З 7 16 км 5/0
[]
+2.6 -2.3 70 -3 -3 1005.0 977.4 -3.0 +3.1 5
09 21.03 З 6 16 км 9/0
[]
+1.7 -1.9 77 -4 -4 1003.0 975.4
12 21.03 СЗ 6 11 км слаб. снег 10/10 300 м
[]
+0.2 -0.4 96 -7 -7 1004.6 977.0 0.0 +3.1
15 21.03 СЗ 7 16 км слаб. дождь 10/10 600 м
[]
+1.4 -3.4 70 -5 -5 1006.8 979.2
18 21.03 С 7 16 км слаб. снег 10/10 600 м
[]
-2.4 -6.8 72 -10 -10 1010.8 983.0 -2.4 +2.6
21 21.03 СЗ 7 16 км слаб. снег 10/10 600 м
[]
-3.7 -9.7 63 -11 -11 1014.7 986.7
00 22.03 С 7 16 км 9/9 1000 м
[]
-6.0 -12.2 61 -14 -14 1018.9 990.7 -6.0 +1.8
03 22.03 С 6 16 км 3/3 600 м
[]
-9.1 -13.4 71 -18 -18 1022.9 994.5
06 22.03 С 2 16 км 5/5 300 м
[]
-11.5 -13.8 83 -16 -16 1025.5 996.9 -11.6 +2.6 221
09 22.03 С 3 16 км слаб. снег 10/10 300 м
[]
-11.3 -13.6 83 -17 -17 1026.5 997.8
12 22.03 С 2 16 км слаб. снег 10/10 300 м
[]
-11.5 -13.5 85 -16 -16 1028.2 999.4 -11.7 +2.6
15 22.03 СЗ 4 16 км слаб. снег 10/10 300 м
[]
-11.1 -13.6 82 -18 -18 1028.0 999.1

 

Местоположение метеостанции Биг Траут Лейк (Онтарио, Канада): широта 45.55 долгота -73.55 высота над уровнем моря 51 м.

В архиве по умолчанию представлена погода в Биг Траут Лейк за последнюю неделю. Архивные данные за месяц целиком и за предыдущие месяцы, начиная с января 2011 года, Вы можете получить, выбрав интересующий диапазон дат из раскрывающегося списка и нажав кнопку "Ввод!".


*Определитесь, кто Вы:
робот инопланетянин человек

Внимание! Время в таблицах - всемирное. Для получения местного времени необходимо прибавить поправку, которая равна -5 ч.

Смотрите также архив погоды в соседних городах и на ближайших метеорологических станциях:

Погода в Монреале МкТавиш (Квебек, Канада) (6 км)
Погода в Аэропорту Сент-Юбер (Квебек, Канада) (11 км)
Погода в Монреале (Квебек, Канада) (18 км)
Погода в Варене (Квебек, Канада) (23 км)
Погода в Л`Асомсьоне (Квебек, Канада) (31 км)
Погода в Сен-Жан-сюр-Ришелье (Квебек, Канада) (32 км)
Погода в Монреале Ste Anne de Bell (Квебек, Канада) (32 км)
Погода в Сен-Клотильде (Квебек, Канада) (43 км)
Погода в Форт Чипуян (Альберта, Канада) (58 км)
Погода в Энукжууке (Квебек, Канада) (65 км)

Пояснения к столбцам:

Ветер - указаны скорость ветра в м/с - средняя за 10 мин, порывы в срок и между сроками (в фигурных скобках) и направление, откуда дует ветер: С - северный, СВ - северо-восточный, В - восточный, ЮВ - юго-восточный, Ю - южный, ЮЗ - юго-западный, З - западный, СЗ - северо-западный.
Видимость - горизонтальная дальность видимости в метрах или километрах. При видимости от 1 до 10 км при отсутствии осадков обычно наблюдается дымка, при ухудшении видимости до 1 км и менее - туман. В сухую погоду видимость может ухудшаться дымом, пылью или мглою.
Явления - указаны атмосферные явления, наблюдавшиеся в срок или в последний час перед сроком; фигурными скобками обозначены явления, наблюдавшиеся между сроками (за 1-3 часа до срока); квадратными скобками обозначены град или гололедные отложения с указанием их диаметра в мм.
Облачность - указаны через наклонную черту общая и нижняя облачность в баллах и высота нижней границы облаков в метрах; квадратными скобками обозначены формы облаков: Ci - перистые, Cs - перисто-слоистые, Cc - перисто-кучевые, Ac - высококучевые, As - высокослоистые, Sc - слоисто-кучевые, Ns - слоисто-дождевые, Cu - кучевые, Cb - кучево-дождевые. Подробнее классификацию облаков см. в Атласе облаков (PDF).
T - Температура воздуха - температура, измеренная на высоте 2 м над землей.
Td - Температура точки росы - температура, при понижении до которой содержащийся в воздухе водяной пар достигнет насыщения.
f - Относительная влажность воздуха - влажноcть воздуха, измеренная на высоте 2 м над землей.
Te - Эффективная температура - температура, которую ощущает одетый по сезону человек в тени. Характеристика душности погоды. При расчете учитывается влияние влажности воздуха и скорости ветра на теплоощущения человека.
Tes - Эффективная температура на солнце - температура, которую ощущает человек, с поправкой на солнечный нагрев. Характеристика знойности погоды. Зависит от высоты солнца над горизонтом, облачности и скорости ветра. Ночью, в пасмурную погоду, а также при ветре 12 м/с и более поправка равна нулю.
P - Атмосферное давление - приведенное к уровню моря атмосферное давление.
Po - Атмосферное давление - измеренное на уровне метеостанции атмосферное давление.
Tmin - Минимальная температура - минимум температуры воздуха на высоте 2 м над землей.
Tmax - Максимальная температура - максимум температуры воздуха на высоте 2 м над землей.
R - Количество осадков - Количество выпавших осадков за период времени, мм. При наведении курсора мыши на число - период времени, за который выпало указанное количество осадков.
R24 - Количество осадков - Количество выпавших осадков за 24 часа, мм.
S - Снежный покров - Высота снежного покрова, см. При наведении курсора мыши на число - состояние снежного покрова и степень покрытия местности в баллах.